Location: �couen
(49.0206°N, 2.3831°E)
Time: 03:00:21
(UTC+00:00)

Cosmos 2098 - Pass Details

Date: 31 May 2022
Orbit: 387 x 1576 km, 82.9° (Epoch: 04 July)

Event Time Altitude Azimuth Distance (km) Brightness Sun altitude
Rises 02:33:07 0° 355° (N) 2,345 8.8 -10.1°
Reaches altitude 10° 02:35:10 10° 0° (N) 1,441 7.8 -9.9°
Maximum altitude 02:38:07 52° 78° (ENE) 498 5.0 -9.6°
Drops below altitude 10° 02:41:07 10° 157° (SSE) 1,476 6.8 -9.3°
Sets 02:43:15 0° 162° (SSE) 2,411 7.8 -9.1°
